星链-1923 (STARLINK-1923 )

导读 | 豆包AI

STARLINK-1923是美国SpaceX公司星链星座中的一颗低轨互联网卫星,于2020年10月24日由猎鹰9号火箭成功发射入轨。星链计划旨在构建全球覆盖的巨型低轨卫星星座,为全球偏远无网络区域提供高速宽带互联网接入服务,该卫星单颗设计寿命超5年,目前处于现役运行状态,在提供全球网络服务的同时,也在军事通信等领域展现出应用潜力,推动了低轨卫星互联网产业发展。

Basic Information
目录编号:
46754
目录名称:
STARLINK-1923
国际标识:
2020-074R
轨道中心:
EARTH
卫星名称:
星链-1923
卫星全名:
星链-1923 (STARLINK-1923 )
卫星状态:
已陨落 最后检测时间 2024-12-02
发射日期:
2020-10-24 UTC
国别 :
美国 (US)
星等 :
--
Orbit Information
数据来源 国际轨道数据
星历时间: 2024-12-02T14:16:28+0800
轨道信息已过期467天
半长轴: 6549.671km
偏心率: 0.0007043
轨道倾角: 53.030°
近地点辐角 216.436°
升交点赤经 206.043°
平近点角 245.038°
近地点: 166.923km
远地点: 176.149km
周期: 87.920分钟
每日圈数: 16.378479
Detailed Information
固有亮度:
5
最大亮度:
2.5
卫星平台:
Starlink V1.0
覆盖范围:
全球
运营商:
太空探索技术公司
运营商所在国:
美国
制造商(研发单位):
太空探索技术公司
制造商所在国:
美国
使用方式:
暂无
Satellite Introduction
星链(Starlink)计划是由太空探索技术公司(SpaceX)提出的一个巨型低轨卫星互联网星座项目,计划在2019年至2024年间在太空搭建由约1.2万颗卫星组成的“星链”网络,其中1584颗将部署在地球上空550千米处的近地轨道,并从2020年开始工作。该卫星仍在工作。